QPF
0.01 0.02 0.06 0.08 0.07 0.05 0.05 0.05 0.05 0.07 0.08 0.07 0.05 0.05 0.07 0.11 0.12 0.10 0.09 0.07 0.05 0.05 0.05 0.07 0.08 0.07 0.10 0.12 0.11 0.11 0.11 0.10 0.13 0.16 0.15 0.15 0.15 0.16 0.18 0.15 0.11 0.08 0.08
0.01 0.02 0.05 0.08 0.07 0.06 0.05 0.06 0.06 0.07 0.09 0.07 0.06 0.05 0.07 0.09 0.10 0.09 0.09 0.06 0.06 0.05 0.05 0.06 0.07 0.07 0.10 0.12 0.14 0.12 0.12 0.12 0.14 0.15 0.13 0.13 0.13 0.13 0.15 0.13 0.09 0.07 0.08
0.01 0.02 0.04 0.08 0.08 0.06 0.06 0.06 0.06 0.08 0.08 0.08 0.08 0.06 0.06 0.08 0.08 0.07 0.09 0.07 0.09 0.06 0.05 0.05 0.05 0.06 0.08 0.09 0.11 0.11 0.12 0.13 0.10 0.09 0.09 0.08 0.10 0.10 0.09 0.09 0.09 0.09 0.09
0.01 0.02 0.03 0.05 0.06 0.06 0.06 0.06 0.07 0.06 0.06 0.07 0.09 0.07 0.06 0.06 0.05 0.05 0.08 0.08 0.08 0.06 0.05 0.04 0.05 0.06 0.08 0.08 0.08 0.08 0.07 0.08 0.09 0.06 0.05 0.04 0.05 0.09 0.07 0.08 0.10 0.10 0.08
0.02 0.03 0.05 0.07 0.07 0.06 0.06 0.06 0.07 0.06 0.06 0.07 0.07 0.08 0.09 0.09 0.08 0.09 0.10 0.10 0.06 0.05 0.05 0.05 0.05 0.07 0.08 0.08 0.06 0.07 0.06 0.05 0.08 0.05 0.03 0.03 0.04 0.10 0.09 0.07 0.08 0.10 0.09
0.03 0.04 0.06 0.08 0.06 0.06 0.06 0.05 0.06 0.07 0.08 0.08 0.07 0.08 0.10 0.12 0.11 0.11 0.11 0.09 0.06 0.05 0.05 0.05 0.05 0.05 0.06 0.05 0.05 0.06 0.04 0.04 0.06 0.05 0.04 0.03 0.02 0.07 0.08 0.07 0.08 0.10 0.09
0.03 0.04 0.07 0.07 0.06 0.07 0.05 0.06 0.07 0.06 0.07 0.06 0.07 0.08 0.10 0.11 0.13 0.09 0.07 0.07 0.07 0.05 0.05 0.05 0.05 0.05 0.06 0.05 0.04 0.03 0.02 0.05 0.05 0.02 0.02 0.02 0.02 0.07 0.09 0.08 0.09 0.10 0.10
0.03 0.02 0.03 0.05 0.05 0.06 0.05 0.05 0.07 0.06 0.06 0.05 0.05 0.06 0.06 0.06 0.06 0.06 0.08 0.08 0.07 0.05 0.04 0.04 0.05 0.05 0.04 0.04 0.04 0.03 0.03 0.03 0.04 0.01 0.01 0.02 0.05 0.07 0.10 0.09 0.10 0.11 0.10
0.02 0.01 0.01 0.02 0.04 0.06 0.06 0.06 0.05 0.05 0.05 0.05 0.04 0.05 0.05 0.05 0.04 0.05 0.06 0.08 0.07 0.06 0.05 0.04 0.04 0.03 0.03 0.04 0.05 0.05 0.04 0.03 0.03 0.01 0.01 0.02 0.06 0.07 0.12 0.16 0.18 0.16 0.15
0.02 0.01 0.01 0.01 0.01 0.03 0.06 0.06 0.06 0.06 0.05 0.04 0.04 0.04 0.04 0.07 0.06 0.05 0.05 0.06 0.07 0.07 0.06 0.05 0.05 0.05 0.04 0.04 0.05 0.04 0.04 0.03 0.03 0.02 0.01 0.03 0.05 0.08 0.15 0.22 0.26 0.21 0.20
0.02 0.01 0.01 0.01 0.00 0.01 0.02 0.05 0.06 0.04 0.04 0.02 0.02 0.02 0.04 0.15 0.10 0.03 0.04 0.05 0.06 0.07 0.07 0.08 0.09 0.08 0.07 0.07 0.05 0.03 0.03 0.02 0.02 0.02 0.02 0.05 0.06 0.10 0.14 0.21 0.20 0.19 0.17
0.01 0.01 0.01 0.01 0.01 0.00 0.00 0.01 0.01 0.01 0.01 0.01 0.02 0.02 0.04 0.19 0.22 0.07 0.03 0.06 0.09 0.11 0.11 0.12 0.11 0.11 0.10 0.10 0.07 0.04 0.04 0.03 0.01 0.01 0.03 0.05 0.08 0.12 0.12 0.18 0.10 0.10 0.09
0.02 0.02 0.02 0.02 0.01 0.01 0.01 0.01 0.01 0.00 0.01 0.01 0.01 0.03 0.04 0.13 0.23 0.16 0.06 0.03 0.03 0.05 0.06 0.07 0.08 0.09 0.08 0.08 0.08 0.04 0.03 0.01 0.01 0.02 0.06 0.07 0.10 0.13 0.13 0.14 0.10 0.09 0.08
0.01 0.01 0.01 0.01 0.02 0.02 0.02 0.02 0.01 0.02 0.02 0.01 0.02 0.04 0.05 0.09 0.16 0.17 0.10 0.04 0.02 0.01 0.01 0.02 0.04 0.05 0.04 0.04 0.05 0.04 0.02 0.01 0.02 0.04 0.11 0.10 0.10 0.10 0.12 0.15 0.14 0.19 0.14
0.02 0.01 0.01 0.01 0.01 0.01 0.02 0.01 0.02 0.02 0.01 0.02 0.02 0.03 0.06 0.08 0.08 0.07 0.05 0.03 0.01 0.01 0.01 0.01 0.01 0.02 0.02 0.03 0.02 0.02 0.02 0.03 0.03 0.08 0.13 0.10 0.09 0.11 0.10 0.10 0.11 0.15 0.16
0.05 0.02 0.02 0.01 0.01 0.01 0.01 0.01 0.01 0.01 0.01 0.02 0.02 0.02 0.04 0.05 0.05 0.03 0.03 0.02 0.01 0.01 0.01 0.01 0.01 0.01 0.01 0.01 0.03 0.03 0.02 0.03 0.04 0.06 0.07 0.07 0.08 0.10 0.10 0.09 0.08 0.09 0.11
0.05 0.05 0.03 0.02 0.01 0.01 0.01 0.01 0.01 0.00 0.01 0.01 0.01 0.01 0.02 0.04 0.04 0.02 0.01 0.01 0.01 0.01 0.01 0.01 0.01 0.01 0.00 0.00 0.01 0.02 0.02 0.03 0.04 0.04 0.03 0.03 0.05 0.08 0.10 0.09 0.07 0.07 0.07
0.03 0.04 0.03 0.02 0.02 0.01 0.01 0.01 0.00 0.00 0.01 0.01 0.01 0.01 0.01 0.02 0.04 0.03 0.02 0.02 0.01 0.01 0.01 0.01 0.01 0.00 0.00 0.00 0.01 0.01 0.02 0.03 0.03 0.04 0.03 0.02 0.03 0.04 0.06 0.09 0.10 0.09 0.08
0.03 0.03 0.03 0.02 0.02 0.02 0.02 0.01 0.00 0.00 0.01 0.01 0.00 0.01 0.01 0.01 0.02 0.04 0.05 0.04 0.02 0.01 0.01 0.01 0.00 0.00 0.00 0.00 0.01 0.01 0.02 0.03 0.02 0.04 0.05 0.02 0.02 0.02 0.03 0.06 0.09 0.09 0.10
0.03 0.03 0.03 0.03 0.02 0.02 0.02 0.01 0.00 0.01 0.01 0.00 0.00 0.00 0.01 0.00 0.01 0.02 0.04 0.05 0.05 0.03 0.02 0.02 0.01 0.01 0.00 0.01 0.01 0.01 0.01 0.01 0.02 0.02 0.07 0.05 0.02 0.01 0.02 0.03 0.05 0.06 0.11
0.02 0.03 0.02 0.03 0.03 0.02 0.02 0.00 0.01 0.01 0.01 0.01 0.01 0.00 0.00 0.01 0.00 0.01 0.02 0.04 0.05 0.05 0.05 0.04 0.03 0.02 0.02 0.01 0.01 0.01 0.00 0.01 0.01 0.02 0.06 0.09 0.04 0.02 0.02 0.03 0.03 0.04 0.08
0.03 0.03 0.03 0.03 0.03 0.02 0.02 0.01 0.01 0.02 0.02 0.02 0.01 0.00 0.00 0.01 0.00 0.00 0.01 0.02 0.03 0.03 0.04 0.05 0.04 0.04 0.03 0.01 0.01 0.00 0.00 0.00 0.01 0.01 0.02 0.05 0.07 0.05 0.04 0.04 0.04 0.05 0.06
0.02 0.03 0.03 0.04 0.04 0.04 0.03 0.02 0.02 0.03 0.02 0.01 0.01 0.01 0.01 0.01 0.01 0.00 0.00 0.01 0.01 0.01 0.02 0.02 0.03 0.02 0.02 0.02 0.01 0.01 0.01 0.01 0.01 0.01 0.01 0.02 0.05 0.06 0.05 0.05 0.04 0.05 0.05
0.02 0.04 0.05 0.05 0.05 0.04 0.03 0.02 0.02 0.02 0.01 0.01 0.01 0.01 0.02 0.01 0.01 0.00 0.00 0.01 0.01 0.01 0.01 0.01 0.01 0.01 0.01 0.02 0.02 0.02 0.02 0.02 0.01 0.01 0.01 0.02 0.02 0.04 0.05 0.05 0.05 0.03 0.03
0.03 0.04 0.06 0.06 0.06 0.05 0.04 0.03 0.02 0.02 0.01 0.01 0.01 0.01 0.01 0.01 0.01 0.01 0.01 0.01 0.01 0.01 0.00 0.00 0.00 0.00 0.01 0.02 0.02 0.03 0.02 0.02 0.01 0.01 0.02 0.03 0.03 0.02 0.02 0.03 0.04 0.03 0.02
0.04 0.05 0.06 0.06 0.06 0.04 0.03 0.02 0.01 0.01 0.01 0.01 0.01 0.00 0.00 0.01 0.02 0.02 0.01 0.01 0.01 0.01 0.01 0.00 0.00 0.00 0.00 0.01 0.02 0.02 0.02 0.01 0.01 0.01 0.02 0.02 0.01 0.01 0.01 0.02 0.03 0.02 0.02
MSLP
1011.38 1010.43 1009.61 1009.01 1008.64 1008.48 1008.46 1008.49 1008.50 1008.42 1008.24 1007.99 1007.69 1007.40 1007.14 1006.91 1006.71 1006.50 1006.25 1005.94 1005.59 1005.22 1004.88 1004.63 1004.50 1004.53 1004.70 1005.00 1005.39 1005.83 1006.31 1006.79 1007.28 1007.76 1008.25 1008.74 1009.21 1009.66 1010.10 1010.52 1010.93 1011.34 1011.76
1011.54 1010.60 1009.77 1009.14 1008.73 1008.53 1008.49 1008.51 1008.54 1008.51 1008.40 1008.23 1008.01 1007.79 1007.59 1007.41 1007.25 1007.07 1006.85 1006.59 1006.30 1005.99 1005.73 1005.53 1005.44 1005.47 1005.62 1005.87 1006.20 1006.58 1007.00 1007.44 1007.90 1008.36 1008.84 1009.30 1009.76 1010.19 1010.59 1010.99 1011.38 1011.79 1012.21
1011.72 1010.82 1009.99 1009.34 1008.91 1008.68 1008.61 1008.63 1008.67 1008.69 1008.64 1008.53 1008.39 1008.23 1008.07 1007.92 1007.77 1007.61 1007.43 1007.21 1006.98 1006.76 1006.58 1006.47 1006.44 1006.51 1006.66 1006.89 1007.18 1007.51 1007.87 1008.27 1008.68 1009.12 1009.56 1010.00 1010.42 1010.82 1011.19 1011.56 1011.93 1012.33 1012.75
1011.91 1011.06 1010.27 1009.63 1009.18 1008.94 1008.85 1008.86 1008.91 1008.95 1008.94 1008.89 1008.79 1008.67 1008.54 1008.41 1008.27 1008.12 1007.96 1007.79 1007.63 1007.50 1007.42 1007.40 1007.46 1007.59 1007.78 1008.01 1008.28 1008.57 1008.89 1009.24 1009.61 1010.01 1010.41 1010.81 1011.19 1011.55 1011.89 1012.22 1012.57 1012.95 1013.37
1012.12 1011.34 1010.60 1010.00 1009.57 1009.31 1009.21 1009.20 1009.24 1009.28 1009.30 1009.27 1009.21 1009.12 1009.01 1008.88 1008.75 1008.61 1008.47 1008.35 1008.26 1008.21 1008.24 1008.33 1008.48 1008.69 1008.93 1009.18 1009.45 1009.72 1010.01 1010.31 1010.64 1010.99 1011.35 1011.70 1012.04 1012.35 1012.65 1012.96 1013.28 1013.64 1014.05
1012.37 1011.68 1011.02 1010.47 1010.07 1009.81 1009.69 1009.66 1009.67 1009.70 1009.71 1009.70 1009.66 1009.59 1009.50 1009.40 1009.28 1009.15 1009.04 1008.95 1008.92 1008.96 1009.07 1009.26 1009.50 1009.78 1010.08 1010.37 1010.64 1010.91 1011.17 1011.44 1011.72 1012.02 1012.33 1012.63 1012.92 1013.19 1013.45 1013.73 1014.03 1014.37 1014.76
1012.68 1012.09 1011.53 1011.05 1010.69 1010.45 1010.31 1010.24 1010.21 1010.21 1010.20 1010.19 1010.17 1010.14 1010.08 1010.00 1009.91 1009.81 1009.73 1009.68 1009.70 1009.79 1009.97 1010.23 1010.54 1010.88 1011.22 1011.54 1011.83 1012.08 1012.32 1012.56 1012.81 1013.06 1013.32 1013.57 1013.81 1014.04 1014.27 1014.51 1014.79 1015.11 1015.48
1013.09 1012.61 1012.16 1011.77 1011.46 1011.24 1011.07 1010.96 1010.88 1010.84 1010.81 1010.80 1010.80 1010.80 1010.79 1010.76 1010.71 1010.65 1010.60 1010.59 1010.64 1010.76 1010.98 1011.28 1011.63 1012.00 1012.37 1012.70 1012.98 1013.23 1013.45 1013.65 1013.86 1014.07 1014.28 1014.49 1014.69 1014.88 1015.07 1015.28 1015.53 1015.84 1016.18
1013.62 1013.26 1012.92 1012.62 1012.37 1012.16 1011.98 1011.83 1011.70 1011.61 1011.56 1011.55 1011.57 1011.62 1011.67 1011.70 1011.71 1011.70 1011.68 1011.69 1011.76 1011.90 1012.12 1012.42 1012.77 1013.15 1013.51 1013.83 1014.11 1014.34 1014.53 1014.71 1014.88 1015.05 1015.22 1015.39 1015.55 1015.70 1015.86 1016.05 1016.27 1016.54 1016.85
1014.26 1014.00 1013.78 1013.58 1013.39 1013.20 1013.01 1012.82 1012.65 1012.52 1012.45 1012.44 1012.50 1012.59 1012.70 1012.80 1012.87 1012.91 1012.93 1012.96 1013.03 1013.16 1013.37 1013.65 1013.98 1014.33 1014.67 1014.96 1015.21 1015.42 1015.58 1015.73 1015.86 1016.00 1016.14 1016.27 1016.40 1016.53 1016.66 1016.82 1017.01 1017.25 1017.52
1014.96 1014.82 1014.70 1014.59 1014.46 1014.30 1014.11 1013.90 1013.71 1013.55 1013.46 1013.47 1013.55 1013.69 1013.85 1014.01 1014.13 1014.22 1014.27 1014.31 1014.38 1014.50 1014.69 1014.93 1015.23 1015.54 1015.84 1016.11 1016.32 1016.50 1016.63 1016.75 1016.86 1016.97 1017.07 1017.18 1017.28 1017.38 1017.49 1017.61 1017.77 1017.97 1018.19
1015.69 1015.64 1015.61 1015.58 1015.51 1015.39 1015.22 1015.01 1014.80 1014.63 1014.55 1014.56 1014.67 1014.84 1015.04 1015.24 1015.41 1015.52 1015.60 1015.66 1015.73 1015.84 1016.01 1016.23 1016.49 1016.77 1017.04 1017.27 1017.46 1017.61 1017.72 1017.81 1017.89 1017.97 1018.05 1018.13 1018.21 1018.28 1018.36 1018.46 1018.58 1018.73 1018.91
1016.38 1016.42 1016.47 1016.50 1016.49 1016.40 1016.25 1016.06 1015.87 1015.72 1015.64 1015.67 1015.78 1015.97 1016.20 1016.42 1016.60 1016.74 1016.84 1016.91 1016.99 1017.11 1017.27 1017.49 1017.74 1018.01 1018.26 1018.47 1018.65 1018.77 1018.87 1018.94 1019.00 1019.06 1019.11 1019.17 1019.22 1019.26 1019.31 1019.37 1019.45 1019.56 1019.68
1017.02 1017.11 1017.22 1017.30 1017.33 1017.28 1017.17 1017.02 1016.86 1016.74 1016.68 1016.72 1016.85 1017.04 1017.26 1017.48 1017.67 1017.82 1017.93 1018.02 1018.13 1018.27 1018.46 1018.69 1018.96 1019.23 1019.49 1019.71 1019.88 1020.00 1020.09 1020.15 1020.20 1020.23 1020.26 1020.29 1020.31 1020.32 1020.33 1020.35 1020.39 1020.45 1020.52
1017.60 1017.72 1017.85 1017.96 1018.02 1018.01 1017.95 1017.85 1017.74 1017.66 1017.64 1017.70 1017.83 1018.01 1018.21 1018.41 1018.59 1018.74 1018.86 1018.99 1019.14 1019.32 1019.56 1019.84 1020.14 1020.45 1020.73 1020.97 1021.16 1021.29 1021.38 1021.44 1021.48 1021.50 1021.50 1021.50 1021.48 1021.45 1021.41 1021.38 1021.37 1021.37 1021.40
1018.15 1018.28 1018.40 1018.52 1018.59 1018.62 1018.60 1018.56 1018.52 1018.49 1018.52 1018.60 1018.72 1018.88 1019.06 1019.24 1019.40 1019.54 1019.69 1019.85 1020.04 1020.29 1020.58 1020.92 1021.28 1021.63 1021.95 1022.22 1022.44 1022.60 1022.71 1022.78 1022.82 1022.83 1022.81 1022.77 1022.71 1022.63 1022.53 1022.44 1022.37 1022.32 1022.29
1018.72 1018.82 1018.93 1019.03 1019.11 1019.16 1019.19 1019.20 1019.23 1019.26 1019.33 1019.44 1019.56 1019.71 1019.86 1020.01 1020.15 1020.29 1020.46 1020.66 1020.90 1021.21 1021.56 1021.96 1022.37 1022.76 1023.13 1023.44 1023.69 1023.88 1024.02 1024.12 1024.17 1024.18 1024.15 1024.08 1023.97 1023.83 1023.67 1023.50 1023.36 1023.24 1023.15
1019.34 1019.42 1019.49 1019.56 1019.63 1019.69 1019.76 1019.83 1019.92 1020.02 1020.13 1020.26 1020.39 1020.52 1020.65 1020.78 1020.91 1021.05 1021.23 1021.47 1021.76 1022.11 1022.51 1022.95 1023.39 1023.82 1024.22 1024.56 1024.85 1025.08 1025.26 1025.39 1025.47 1025.50 1025.47 1025.38 1025.23 1025.03 1024.79 1024.55 1024.32 1024.12 1023.96
1020.04 1020.08 1020.12 1020.15 1020.21 1020.28 1020.37 1020.49 1020.63 1020.78 1020.94 1021.09 1021.23 1021.35 1021.47 1021.58 1021.70 1021.85 1022.05 1022.30 1022.62 1023.00 1023.43 1023.88 1024.33 1024.77 1025.18 1025.54 1025.87 1026.14 1026.37 1026.55 1026.68 1026.74 1026.73 1026.63 1026.46 1026.21 1025.90 1025.58 1025.25 1024.96 1024.72
1020.79 1020.81 1020.81 1020.82 1020.86 1020.94 1021.06 1021.21 1021.39 1021.58 1021.77 1021.94 1022.08 1022.20 1022.31 1022.41 1022.53 1022.68 1022.89 1023.16 1023.48 1023.86 1024.28 1024.72 1025.15 1025.57 1025.97 1026.34 1026.69 1027.01 1027.30 1027.54 1027.74 1027.86 1027.89 1027.81 1027.63 1027.35 1026.99 1026.59 1026.18 1025.80 1025.47
1021.55 1021.55 1021.54 1021.54 1021.57 1021.66 1021.79 1021.98 1022.19 1022.40 1022.61 1022.78 1022.93 1023.04 1023.14 1023.24 1023.36 1023.51 1023.72 1023.99 1024.30 1024.66 1025.04 1025.43 1025.82 1026.20 1026.57 1026.93 1027.30 1027.65 1028.00 1028.33 1028.61 1028.81 1028.90 1028.87 1028.72 1028.43 1028.05 1027.59 1027.11 1026.65 1026.23
1022.23 1022.24 1022.24 1022.25 1022.29 1022.39 1022.55 1022.75 1022.97 1023.20 1023.41 1023.59 1023.73 1023.84 1023.93 1024.02 1024.14 1024.29 1024.49 1024.74 1025.02 1025.34 1025.66 1025.99 1026.31 1026.64 1026.96 1027.31 1027.68 1028.07 1028.48 1028.89 1029.26 1029.55 1029.74 1029.78 1029.68 1029.43 1029.05 1028.58 1028.06 1027.54 1027.05
1022.79 1022.83 1022.85 1022.88 1022.95 1023.08 1023.25 1023.47 1023.71 1023.94 1024.15 1024.32 1024.44 1024.54 1024.62 1024.70 1024.81 1024.95 1025.14 1025.36 1025.61 1025.87 1026.13 1026.38 1026.64 1026.90 1027.18 1027.49 1027.86 1028.28 1028.74 1029.22 1029.67 1030.06 1030.35 1030.50 1030.48 1030.30 1029.97 1029.53 1029.01 1028.46 1027.93
1023.19 1023.26 1023.32 1023.40 1023.51 1023.67 1023.87 1024.10 1024.34 1024.58 1024.77 1024.93 1025.04 1025.12 1025.18 1025.25 1025.35 1025.47 1025.63 1025.82 1026.03 1026.24 1026.44 1026.63 1026.82 1027.02 1027.25 1027.53 1027.89 1028.31 1028.80 1029.33 1029.85 1030.33 1030.72 1030.97 1031.06 1030.99 1030.75 1030.38 1029.91 1029.38 1028.85
1023.45 1023.56 1023.66 1023.78 1023.93 1024.13 1024.35 1024.61 1024.86 1025.09 1025.27 1025.41 1025.51 1025.57 1025.61 1025.67 1025.74 1025.85 1025.99 1026.15 1026.32 1026.48 1026.63 1026.77 1026.90 1027.05 1027.24 1027.49 1027.81 1028.23 1028.72 1029.26 1029.83 1030.37 1030.84 1031.19 1031.40 1031.46 1031.35 1031.09 1030.71 1030.26 1029.76
1023.63 1023.75 1023.89 1024.04 1024.23 1024.46 1024.71 1024.98 1025.24 1025.47 1025.65 1025.78 1025.86 1025.90 1025.93 1025.97 1026.02 1026.11 1026.22 1026.35 1026.49 1026.62 1026.74 1026.84 1026.94 1027.06 1027.21 1027.42 1027.70 1028.08 1028.54 1029.06 1029.63 1030.19 1030.72 1031.16 1031.49 1031.68 1031.72 1031.61 1031.37 1031.03 1030.61
Thickness
5755 5760 5762 5764 5766 5767 5768 5769 5770 5771 5772 5773 5774 5775 5776 5776 5776 5777 5777 5777 5777 5777 5777 5777 5777 5777 5777 5777 5776 5776 5775 5774 5774 5773 5772 5772 5772 5772 5772 5772 5771 5771 5772
5755 5758 5760 5762 5763 5764 5765 5767 5768 5769 5770 5771 5772 5773 5773 5773 5774 5774 5774 5774 5774 5775 5775 5775 5774 5774 5774 5773 5773 5772 5772 5771 5771 5770 5770 5769 5769 5769 5769 5770 5770 5770 5769
5754 5756 5758 5759 5761 5762 5763 5764 5765 5766 5767 5768 5769 5770 5771 5771 5771 5772 5772 5772 5772 5772 5772 5771 5771 5771 5770 5770 5769 5769 5768 5768 5768 5767 5767 5766 5766 5767 5767 5768 5768 5767 5767
5752 5753 5755 5757 5758 5758 5759 5761 5762 5763 5764 5764 5765 5766 5767 5768 5768 5768 5768 5768 5768 5768 5768 5767 5767 5767 5766 5766 5765 5765 5765 5764 5764 5764 5763 5763 5764 5764 5764 5765 5765 5765 5765
5749 5750 5752 5753 5754 5755 5756 5757 5758 5759 5760 5761 5761 5762 5763 5764 5764 5764 5765 5765 5765 5764 5764 5763 5763 5763 5763 5762 5762 5761 5761 5760 5759 5760 5760 5760 5760 5761 5761 5761 5762 5762 5762
5746 5747 5748 5749 5750 5751 5752 5753 5754 5755 5756 5756 5757 5758 5759 5760 5760 5761 5761 5761 5761 5760 5759 5759 5759 5759 5759 5758 5758 5758 5757 5756 5755 5756 5756 5756 5756 5757 5757 5758 5758 5758 5758
5742 5743 5744 5746 5746 5747 5748 5749 5749 5750 5751 5752 5753 5753 5754 5755 5755 5756 5756 5756 5756 5756 5755 5755 5755 5755 5754 5754 5753 5753 5753 5752 5752 5752 5752 5752 5753 5753 5754 5754 5755 5754 5754
5739 5740 5741 5742 5742 5743 5744 5745 5745 5746 5746 5747 5748 5749 5749 5750 5751 5752 5752 5752 5751 5751 5751 5750 5750 5750 5750 5749 5749 5749 5749 5748 5747 5748 5748 5749 5749 5750 5750 5751 5751 5751 5751
5736 5736 5737 5738 5738 5739 5740 5741 5741 5742 5742 5743 5743 5744 5745 5746 5747 5747 5747 5747 5747 5746 5746 5746 5746 5745 5745 5744 5744 5744 5744 5743 5743 5743 5744 5744 5745 5746 5746 5747 5747 5747 5747
5732 5733 5733 5734 5735 5735 5736 5736 5737 5737 5738 5738 5738 5739 5739 5741 5742 5743 5743 5742 5742 5742 5741 5741 5740 5740 5740 5739 5739 5739 5738 5738 5738 5738 5739 5740 5741 5742 5742 5742 5743 5743 5743
5727 5729 5729 5730 5731 5731 5732 5732 5733 5733 5733 5733 5734 5734 5735 5736 5737 5738 5737 5737 5737 5736 5736 5736 5735 5734 5734 5734 5733 5733 5733 5733 5733 5734 5735 5736 5737 5737 5737 5738 5739 5739 5738
5722 5724 5726 5727 5727 5727 5728 5728 5728 5729 5729 5729 5729 5729 5730 5730 5731 5731 5731 5731 5730 5730 5730 5730 5728 5728 5728 5728 5727 5727 5727 5727 5728 5729 5730 5731 5732 5733 5733 5733 5735 5735 5734
5720 5722 5723 5723 5724 5724 5724 5724 5724 5724 5724 5724 5725 5725 5725 5725 5725 5724 5724 5724 5724 5724 5724 5723 5723 5722 5722 5722 5721 5721 5722 5722 5722 5724 5725 5726 5727 5728 5728 5729 5730 5730 5730
5717 5718 5720 5721 5720 5720 5720 5720 5720 5720 5720 5720 5720 5720 5720 5720 5719 5719 5718 5718 5718 5718 5718 5717 5717 5716 5716 5716 5716 5716 5716 5716 5717 5718 5719 5720 5721 5722 5723 5723 5724 5725 5725
5715 5715 5716 5717 5717 5717 5717 5716 5716 5716 5716 5716 5716 5716 5716 5715 5714 5714 5713 5713 5713 5712 5712 5711 5711 5711 5710 5710 5710 5709 5709 5710 5711 5712 5713 5714 5716 5717 5717 5718 5719 5720 5720
5712 5713 5714 5714 5714 5714 5713 5712 5712 5712 5712 5712 5712 5712 5711 5711 5710 5709 5708 5708 5708 5707 5707 5706 5706 5705 5704 5704 5703 5703 5703 5703 5704 5705 5706 5707 5709 5710 5711 5712 5713 5714 5715
5710 5711 5711 5712 5711 5710 5710 5709 5709 5708 5708 5708 5708 5708 5707 5707 5706 5705 5704 5703 5703 5703 5702 5702 5701 5700 5699 5698 5696 5696 5696 5696 5697 5698 5699 5700 5702 5703 5705 5706 5707 5708 5709
5708 5708 5709 5710 5708 5707 5706 5706 5705 5705 5704 5704 5704 5704 5703 5702 5702 5701 5700 5699 5698 5698 5698 5697 5695 5693 5692 5690 5689 5689 5689 5690 5691 5692 5693 5693 5694 5695 5697 5699 5700 5701 5702
5706 5707 5706 5706 5705 5704 5703 5703 5702 5701 5700 5700 5699 5699 5699 5698 5698 5697 5696 5695 5694 5694 5692 5692 5689 5688 5686 5684 5683 5683 5683 5683 5684 5685 5686 5686 5687 5688 5689 5691 5692 5694 5695
5705 5704 5704 5704 5703 5701 5700 5698 5697 5696 5696 5696 5695 5695 5695 5695 5694 5693 5692 5691 5690 5689 5687 5686 5684 5682 5680 5679 5679 5677 5676 5677 5678 5678 5678 5679 5680 5681 5682 5683 5684 5686 5687
5702 5701 5700 5700 5699 5698 5695 5693 5691 5690 5691 5691 5691 5691 5691 5691 5690 5689 5688 5686 5685 5684 5682 5680 5679 5676 5674 5673 5672 5670 5670 5670 5671 5671 5672 5672 5673 5674 5675 5676 5677 5678 5679
5699 5698 5697 5697 5696 5695 5694 5692 5690 5688 5687 5687 5687 5687 5687 5687 5686 5685 5684 5682 5681 5679 5677 5675 5673 5670 5669 5668 5666 5663 5660 5660 5662 5664 5664 5665 5666 5667 5668 5668 5669 5670 5672
5696 5696 5696 5695 5693 5692 5691 5689 5687 5684 5682 5682 5682 5681 5682 5682 5681 5681 5679 5678 5676 5674 5672 5670 5669 5666 5663 5662 5661 5659 5654 5651 5652 5655 5656 5657 5658 5659 5660 5662 5663 5664 5665
5695 5694 5693 5692 5691 5689 5688 5687 5684 5680 5677 5677 5677 5677 5677 5677 5677 5676 5675 5673 5672 5670 5668 5666 5665 5663 5660 5657 5656 5655 5653 5651 5647 5646 5648 5650 5651 5652 5653 5655 5656 5657 5658
5693 5692 5691 5689 5687 5686 5684 5683 5681 5678 5676 5675 5675 5674 5673 5673 5672 5672 5671 5669 5667 5666 5664 5662 5660 5658 5657 5654 5652 5650 5648 5646 5644 5641 5639 5641 5644 5646 5647 5648 5649 5651 5652
5689 5689 5687 5684 5683 5682 5680 5679 5678 5675 5673 5671 5670 5669 5668 5667 5667 5667 5666 5665 5663 5661 5660 5658 5656 5654 5653 5651 5649 5647 5645 5643 5640 5638 5635 5634 5635 5638 5641 5642 5643 5644 5645